Location: Fredericksburg
(30.2750°N, 98.8720°W)
Time: 14:50:12
(UTC-05:00)

ISS - All Passes

Search period start: 29 July 2016 00:00
Search period end: 08 August 2016 00:00
Orbit: 401 x 403 km, 51.6° (Epoch: 29 July)

Date Brightness Start Highest point End Pass type
(mag) Time Alt. Az. Time Alt. Az. Time Alt. Az.
29 Jul - 04:23:31 10° NNW 04:26:24 29° NE 04:29:17 10° ESE visible
29 Jul - 06:00:32 10° W 06:02:37 16° SW 06:04:42 10° SSW visible
29 Jul - 19:23:44 10° SSE 19:25:25 13° SE 19:27:07 10° E daylight
29 Jul - 20:58:35 10° WSW 21:01:35 34° NW 21:04:35 10° NNE visible
30 Jul - 03:31:15 10° N 03:33:17 15° NE 03:35:18 10° ENE night (unlit)
30 Jul - 05:06:46 10° WNW 05:09:47 36° SW 05:12:48 10° SSE night (unlit)
30 Jul - 20:05:20 10° SW 20:08:33 82° NW 20:11:49 10° NE daylight
31 Jul - 04:13:37 10° NW 04:16:53 86° NE 04:20:07 10° SE night (unlit)
31 Jul - 19:12:35 10° SSW 19:15:38 38° SE 19:18:41 10° ENE daylight
31 Jul - 20:50:13 10° WNW 20:52:10 15° NW 20:54:08 10° N visible
01 Aug - 03:20:49 10° NNW 03:23:51 35° NE 03:26:52 10° ESE night (unlit)
01 Aug - 04:58:27 10° W 04:59:59 13° SW 05:01:32 10° SSW night (unlit)
01 Aug - 18:20:36 10° S 18:22:46 17° SE 18:24:56 10° E daylight
01 Aug - 19:56:08 10° WSW 19:59:00 28° NW 20:01:51 10° NNE daylight
02 Aug - 02:28:23 10° N 02:30:43 18° NE 02:33:02 10° E night (unlit)
02 Aug - 04:04:17 10° WNW 04:07:08 29° SW 04:09:59 10° S night (unlit)
02 Aug - 19:02:42 10° SW 19:05:55 63° NW 19:09:08 10° NE daylight
03 Aug - 01:37:13 10° NNE 01:37:27 10° NNE 01:37:40 10° NE night (unlit)
03 Aug - 03:10:58 10° NW 03:14:12 74° SW 03:17:26 10° SE night (unlit)
03 Aug - 18:09:46 10° SSW 18:12:55 49° SE 18:16:05 10° NE daylight
03 Aug - 19:47:59 10° WNW 19:49:32 13° NW 19:51:05 10° N daylight
04 Aug - 02:18:02 10° NNW 02:21:10 44° NE 02:24:17 10° ESE night (unlit)
04 Aug - 03:56:50 10° WSW 03:57:13 10° SW 03:57:38 10° SW night (unlit)
04 Aug - 17:17:29 10° S 17:19:59 21° SE 17:22:30 10° ENE daylight
04 Aug - 18:53:37 10° W 18:56:18 23° NW 18:58:59 10° NNE daylight
05 Aug - 01:25:26 10° NNW 01:28:01 21° NE 01:30:35 10° E night (unlit)
05 Aug - 03:01:43 10° WNW 03:04:22 23° SW 03:07:00 10° S night (unlit)
05 Aug - 18:00:00 10° WSW 18:03:09 50° NW 18:06:20 10° NNE daylight
06 Aug - 00:33:29 10° N 00:34:44 12° NNE 00:36:00 10° ENE night (unlit)
06 Aug - 02:08:13 10° NW 02:11:24 57° SW 02:14:35 10° SSE night (unlit)
06 Aug - 17:06:54 10° SW 17:10:05 64° SE 17:13:19 10° NE daylight
06 Aug - 18:45:51 10° NW 18:46:48 11° NNW 18:47:44 10° NNW daylight
07 Aug - 01:15:09 10° NW 01:18:21 56° NE 01:21:32 10° SE night (unlit)
07 Aug - 16:14:22 10° S 16:17:07 26° SE 16:19:52 10° ENE daylight
07 Aug - 17:51:02 10° W 17:53:29 20° NW 17:55:57 10° NNE daylight
